Regional Weather Roundup
Issued by NWS State College, PA

Home | Current Version | Previous Version | Text Only | Print | Product List | Glossary On
Versions: 1 2 3 4 5 6 7 8 9 10 11 12 13 14 15 16 17 18 19 20 21 22 23 24 25 26 27 28 29 30 31 32 33 34 35 36 37 38 39 40 41 42 43 44 45 46 47 48 49 50
000
ASUS41 KCTP 031310
RWRCTP

REGIONAL WEATHER ROUNDUP
NATIONAL WEATHER SERVICE STATE COLLEGE PA
900 AM EDT SUN MAY 03 2015

Note: "fair" indicates few or no clouds below 12,000 feet with no
significant weather and/or obstructions to visibility.

* = STATION THAT DOES NOT REPORT PRECIPITATION /E.G. RAIN...SNOW...ETC/
    THUNDER OR FOG.

PAZ002>004-007>009-013>016-020>023-029>032-031400-
WESTERN PENNSYLVANIA

CITY           SKY/WX    TMP DP  RH WIND       PRES   REMARKS
ERIE           SUNNY     64  39  39 SW8       30.08S
MEADVILLE      SUNNY     60  38  43 S5        30.11R
FRANKLIN*      SUNNY     61  37  41 SW8       30.13S
NEW CASTLE     FAIR      56  48  74 CALM      30.13R
BEAVER COUNTY  NOT AVBL
BUTLER*        SUNNY     59  43  55 SW3       30.14S
PITTSBURGH INT MOSUNNY   61  43  51 W5        30.13R
PITTSBURGH     SUNNY     58  39  49 S7        30.13R
INDIANA*       SUNNY     59  43  55 SW6       30.18R
LATROBE        MOSUNNY   59  46  63 SW9       30.16R
WASHINGTON CO* SUNNY     63  46  55 SW6       30.16R
$$

PAZ004>006-010>012-017>019-024>028-033>037-041-042-045-046-049>053-031400-
CENTRAL PENNSYLVANIA

CITY           SKY/WX    TMP DP  RH WIND       PRES   REMARKS
BRADFORD       SUNNY     59  33  37 SW9       30.13R
DUBOIS         SUNNY     61  36  39 SW6       30.12R
CLEARFIELD     SUNNY     53  37  54 S3        30.14R
JOHNSTOWN      SUNNY     57  38  48 SW8       30.14S
ALTOONA        SUNNY     60  39  45 W5        30.14R
STATE COLLEGE  SUNNY     59  37  44 CALM      30.13S
WILLIAMSPORT   SUNNY     55  38  52 W6        30.12R
SELINSGROVE    SUNNY     58  44  60 CALM      30.13R
FT INDIANTOWN  SUNNY     61  45  56 VRB2      30.11R
CAPITAL CITY   SUNNY     62  42  47 W3        30.12R
HARRISBURG     MOSUNNY   62  44  51 NW5       30.11R
YORK           SUNNY     62  43  49 W3        30.11R
$$

PAZ038>040-043-044-047-048-054-055-060>062-067>071-031400-
EASTERN PENNSYLVANIA

CITY           SKY/WX    TMP DP  RH WIND       PRES   REMARKS
SCRANTON       SUNNY     58  35  42 CALM      30.11R
MOUNT POCONO   SUNNY     64  33  31 N6        30.11R
ALLENTOWN      SUNNY     57  47  69 CALM      30.10R
QUAKERTOWN*    SUNNY     59  48  67 CALM      30.10S
READING        SUNNY     59  48  67 NW3       30.10R
LANCASTER      SUNNY     58  49  72 VRB3      30.10R
COATESVILLE    SUNNY     61  48  63 CALM      30.11R
POTTSTOWN      SUNNY     56  48  74 CALM      30.11S
BLUE BELL      SUNNY     59  46  63 W3        30.10R
DOYLESTOWN     SUNNY     57  32  38 CALM      30.09R
WILLOW GROVE   NOT AVBL
NORTH PHILA    SUNNY     59  42  53 CALM      30.12R
PHILADELPHIA   PTSUNNY   58  45  62 CALM      30.11R
$$


USA.gov is the U.S. government's official web portal to all federal, state and local government web resources and services.